Temperature
21 21 21 22 16 12 9 10 10 9 8 8 8 7 6 6 6 4 4 6 7 8 9 9 9 9 10 10 10 10 10 10 11 11 11 11 12 12 12 12 13 13 13 13 13 13 13 13 14
22 22 22 19 13 11 10 9 9 8 8 8 8 8 7 6 6 5 5 6 7 8 9 9 9 9 9 9 9 9 9 9 9 10 10 10 11 11 11 11 12 12 12 12 13 13 13 13 13
22 22 19 11 9 9 10 9 8 8 8 8 7 7 6 5 5 5 5 6 7 8 9 9 9 9 9 9 9 9 9 9 9 9 9 9 9 9 9 10 10 11 11 11 11 12 12 13 13
22 21 15 10 8 8 9 9 9 8 9 8 7 5 4 4 4 4 5 6 8 8 8 9 9 8 8 8 8 8 8 7 7 7 7 7 8 8 8 8 9 9 9 10 10 10 11 12 12
23 19 11 9 8 8 8 8 9 8 7 7 6 4 3 3 4 5 6 7 8 8 8 8 8 8 8 7 7 7 7 6 6 6 6 6 6 6 6 7 7 7 7 8 8 9 10 10 11
22 14 11 8 9 8 8 8 8 7 7 7 6 4 3 3 4 5 6 7 7 8 8 8 8 7 7 7 6 6 5 5 5 5 5 5 5 5 5 5 5 5 6 6 7 7 8 9 10
17 10 9 8 9 9 8 8 7 7 6 6 6 4 2 3 4 5 6 7 7 7 7 7 7 6 6 6 5 5 4 4 4 4 4 4 4 4 4 4 5 4 5 5 5 6 6 7 9
18 11 10 9 9 9 8 8 7 7 6 6 6 4 3 4 5 5 6 7 7 7 7 6 6 5 5 5 4 4 3 3 3 3 3 3 3 3 4 4 4 4 4 4 4 5 5 6 7
18 11 10 10 10 8 8 7 6 6 6 6 5 5 4 4 5 6 6 7 7 6 6 5 5 4 4 3 3 3 3 2 2 2 2 2 2 2 3 3 3 3 3 3 3 4 4 5 6
15 10 11 10 9 7 8 7 6 5 5 4 4 4 4 5 5 6 7 6 6 5 4 4 4 3 3 3 2 2 2 2 1 1 1 1 1 1 1 2 2 2 2 2 3 3 3 4 4
10 8 9 8 9 9 7 7 6 6 4 4 4 5 5 5 6 6 5 5 4 4 3 3 3 2 2 2 2 2 1 1 1 1 1 1 1 1 1 1 1 1 1 2 2 2 2 3 3
9 8 9 9 9 9 7 7 6 7 6 6 6 5 5 5 6 5 4 4 3 3 2 2 2 2 1 1 1 1 1 0 0 -0 -0 -0 -0 -0 -0 -0 -0 -0 -0 -0 0 1 1 1 2
8 8 8 9 9 8 8 7 6 6 6 6 5 5 5 5 5 4 4 3 2 2 2 2 1 1 1 1 1 0 0 0 -0 -1 -1 -1 -1 -1 -2 -2 -2 -2 -2 -1 -1 -1 -0 0 1
8 8 8 9 9 8 6 6 6 5 6 5 5 5 5 5 4 4 3 2 2 1 1 1 1 1 1 1 0 0 -0 -1 -1 -1 -2 -2 -2 -3 -3 -3 -3 -3 -3 -3 -3 -2 -2 -1 -1
10 8 8 8 8 7 7 6 5 5 5 5 5 5 5 4 4 3 2 2 1 1 1 1 1 1 0 0 -0 -1 -1 -2 -2 -2 -3 -3 -4 -4 -4 -4 -5 -5 -4 -4 -4 -3 -3 -3 -2
10 9 10 9 8 7 7 8 6 5 5 4 4 4 4 4 3 2 2 1 1 0 0 0 0 0 0 -0 -1 -1 -2 -2 -3 -3 -4 -4 -5 -5 -5 -6 -6 -6 -6 -5 -5 -5 -4 -4 -3
11 11 11 9 7 7 7 7 5 5 5 4 4 4 4 3 3 2 1 1 0 -0 -0 -0 0 0 -0 -1 -1 -2 -3 -3 -4 -4 -5 -5 -6 -6 -6 -7 -7 -7 -7 -7 -7 -6 -6 -6 -5
13 12 12 10 8 6 6 6 5 5 4 4 4 4 4 3 3 2 1 0 -0 -1 -1 -0 -0 -0 -1 -1 -2 -2 -3 -4 -4 -5 -5 -6 -6 -7 -7 -8 -8 -8 -8 -8 -8 -7 -7 -7 -7
13 13 12 11 8 7 6 6 4 4 4 3 4 4 3 3 2 2 1 -0 -1 -1 -0 -0 -0 -1 -2 -2 -3 -3 -3 -4 -5 -6 -6 -7 -7 -8 -8 -8 -9 -9 -9 -9 -9 -9 -8 -8 -8
13 13 12 10 9 8 6 5 4 4 3 4 4 4 4 3 2 1 0 -1 -1 -1 -0 -1 -1 -2 -3 -3 -4 -4 -5 -5 -5 -6 -7 -7 -8 -8 -9 -9 -10 -10 -10 -10 -10 -10 -10 -9 -10
13 13 12 11 9 7 7 6 4 4 4 4 4 4 4 3 2 1 -0 -1 -1 -1 -1 -1 -2 -3 -3 -4 -4 -4 -5 -5 -6 -6 -7 -8 -8 -9 -9 -10 -10 -11 -11 -11 -11 -11 -11 -11 -10
13 12 12 10 9 7 8 7 6 3 3 2 3 3 3 2 1 0 -1 -1 -1 -1 -2 -2 -3 -3 -4 -4 -5 -5 -6 -6 -7 -8 -8 -8 -9 -9 -10 -11 -11 -12 -12 -12 -12 -12 -12 -12 -12
12 11 11 10 9 8 7 6 6 3 3 2 2 3 3 2 1 0 -1 -1 -2 -2 -2 -3 -3 -4 -4 -5 -5 -6 -7 -7 -8 -8 -8 -9 -9 -10 -11 -12 -12 -12 -12 -12 -12 -12 -12 -12 -12
11 10 9 7 7 9 9 7 8 3 3 2 2 3 2 2 1 -0 -1 -1 -2 -2 -2 -3 -3 -4 -5 -5 -6 -7 -7 -8 -8 -9 -9 -10 -11 -11 -12 -12 -13 -13 -13 -13 -13 -13 -13 -13 -12
11 11 10 11 10 10 8 7 7 5 3 3 2 3 2 1 0 -0 -1 -2 -2 -2 -2 -3 -4 -4 -5 -6 -6 -7 -8 -8 -9 -10 -11 -11 -12 -12 -12 -13 -13 -13 -13 -13 -13 -13 -13 -13 -13
11 11 11 12 10 8 8 7 6 4 3 3 3 3 2 1 0 -1 -1 -2 -2 -2 -3 -4 -4 -5 -6 -6 -7 -7 -8 -9 -10 -11 -12 -12 -12 -13 -13 -13 -13 -13 -13 -13 -13 -13 -13 -13 -13
11 9 9 8 8 7 7 7 6 3 2 1 1 1 1 1 -0 -1 -2 -2 -2 -3 -4 -4 -5 -5 -6 -6 -7 -7 -8 -9 -10 -11 -12 -12 -13 -13 -13 -13 -13 -13 -13 -13 -13 -13 -13 -13 -13
10 8 7 8 10 9 8 8 8 5 2 -0 -0 0 1 0 -1 -2 -2 -2 -3 -3 -4 -5 -5 -6 -6 -6 -7 -8 -9 -10 -10 -11 -12 -12 -12 -13 -13 -12 -12 -12 -12 -13 -13 -13 -13 -13 -12
10 9 7 6 7 8 7 9 7 6 3 1 0 1 1 0 -1 -2 -2 -3 -3 -4 -4 -5 -5 -6 -6 -7 -7 -8 -9 -10 -11 -11 -12 -12 -12 -12 -12 -12 -12 -12 -12 -12 -12 -12 -12 -12 -12
10 10 7 9 8 6 5 8 6 4 4 3 2 2 1 -0 -1 -2 -2 -3 -4 -4 -5 -5 -5 -6 -6 -7 -7 -8 -9 -10 -11 -11 -12 -12 -12 -12 -12 -12 -11 -11 -11 -11 -11 -11 -12 -12 -11
Wind_Speed
6 6 4 5 9 10 6 5 3 5 5 3 4 8 9 7 7 7 1 13 18 20 23 25 28 29 29 29 30 30 30 30 30 30 30 30 30 30 30 30 30 30 30 29 29 28 28 28 28
5 5 7 7 8 7 4 5 4 4 6 5 5 6 7 7 5 6 5 12 17 20 23 25 28 28 29 29 29 29 30 30 30 30 30 30 30 30 30 30 30 30 29 29 29 28 28 28 28
6 8 7 7 7 6 5 2 5 5 5 4 5 6 6 5 5 4 6 10 14 20 24 26 29 29 29 29 29 29 29 29 29 29 29 29 30 30 30 30 30 30 30 29 28 28 28 28 28
6 7 8 10 9 4 3 2 3 7 5 6 6 6 5 6 4 5 6 9 13 20 24 27 29 28 28 28 29 29 29 29 29 29 29 29 29 29 29 29 30 30 30 29 29 28 28 28 28
5 7 9 8 6 4 3 3 3 4 4 5 6 7 5 4 6 6 6 11 14 18 23 26 29 28 28 28 29 28 28 28 28 29 29 29 29 29 28 29 29 29 29 29 29 29 29 29 28
6 6 8 6 6 5 2 3 4 6 5 6 7 6 4 3 4 4 7 12 16 17 21 24 28 28 27 27 28 28 28 28 28 29 29 29 30 30 29 29 29 29 28 28 28 29 29 29 28
6 7 7 8 7 5 4 3 5 5 5 3 5 6 5 3 2 3 7 11 15 18 20 23 25 25 25 25 27 27 27 27 27 28 29 29 30 30 29 29 29 29 28 28 28 29 29 29 28
6 7 7 5 6 5 5 4 4 4 5 3 4 8 6 5 4 3 5 8 11 16 19 22 24 24 24 23 25 26 25 26 26 27 28 28 28 28 28 29 29 29 28 28 29 29 29 29 27
5 6 5 5 7 7 5 5 4 4 6 5 4 5 7 8 4 1 3 7 9 13 16 21 23 23 22 20 21 23 22 23 24 24 27 25 24 24 24 27 28 28 28 29 29 29 29 28 26
7 6 4 1 6 8 5 6 7 5 6 5 5 6 7 5 3 5 10 12 12 12 10 17 19 20 20 18 18 20 19 21 21 22 24 22 22 22 23 25 26 27 27 28 28 29 27 24 21
8 7 5 5 6 8 6 6 5 9 4 7 9 9 7 5 5 9 9 7 7 7 8 12 16 18 19 18 16 18 18 18 19 21 22 22 20 20 20 19 21 23 24 23 25 24 22 21 21
8 6 5 5 5 6 6 6 5 3 4 8 10 10 7 7 7 7 7 6 6 7 8 9 14 17 17 17 16 16 16 16 17 19 21 20 18 18 19 17 19 19 19 21 21 20 22 22 21
7 5 5 8 11 8 7 6 5 3 7 9 9 8 8 8 7 6 6 5 6 6 8 8 11 15 16 15 15 16 16 16 18 18 20 21 18 17 18 17 18 19 20 20 19 19 20 20 20
6 8 7 6 7 4 7 5 6 4 7 9 8 7 7 7 6 5 5 5 5 6 8 9 9 15 15 15 15 15 17 17 18 18 20 21 19 18 17 16 16 18 20 20 19 19 17 16 16
6 7 6 3 4 4 7 3 5 8 9 9 7 7 6 6 6 6 3 2 4 5 7 9 9 14 15 15 16 16 18 18 17 17 19 20 20 19 18 14 14 17 20 20 19 17 16 14 14
5 5 1 2 4 4 4 5 5 10 10 9 8 7 6 5 5 5 3 2 4 5 6 8 11 13 14 15 16 17 17 17 17 17 18 19 19 19 17 14 14 19 19 17 14 9 12 12 13
3 1 2 3 5 5 5 6 5 9 11 10 9 7 6 5 4 4 2 2 4 5 6 6 9 11 14 15 16 16 16 16 17 17 17 18 19 19 18 14 15 18 16 14 13 10 11 13 14
2 2 3 4 6 7 6 6 5 9 10 10 9 8 7 6 6 4 2 1 4 5 5 5 8 11 13 14 13 12 12 14 16 17 17 20 19 20 19 14 16 16 12 8 9 12 11 11 13
2 3 3 2 5 7 8 7 7 9 9 9 9 8 8 6 5 4 2 1 4 5 6 6 8 9 11 7 7 7 7 7 11 15 18 19 20 20 18 15 15 14 8 9 10 11 11 10 11
3 1 2 1 3 4 4 6 5 8 9 9 11 10 9 6 5 4 2 1 4 5 7 7 8 8 10 8 8 6 6 6 10 14 16 18 20 20 18 17 15 13 9 9 10 11 9 9 9
2 2 2 3 1 2 3 6 3 3 4 5 7 7 7 8 8 5 3 2 3 5 7 8 8 8 11 13 11 10 5 4 5 6 7 16 20 20 19 18 17 15 9 9 10 9 10 11 9
1 1 2 3 1 4 1 6 5 5 5 7 8 8 8 7 6 4 2 2 3 5 6 7 8 8 11 13 9 9 9 9 9 7 9 17 19 19 19 19 18 15 12 9 10 9 9 10 10
2 1 1 2 2 2 1 2 6 3 7 10 10 9 8 7 6 4 2 1 4 5 6 7 8 7 10 12 9 8 8 7 9 8 9 9 15 18 19 19 17 15 13 10 10 11 9 8 9
1 4 4 4 3 3 3 4 7 6 7 7 9 9 9 7 6 4 2 3 4 5 6 7 8 8 8 9 8 9 9 10 12 12 10 10 9 13 17 20 18 17 14 12 11 9 10 9 10
5 4 6 6 4 5 2 4 9 4 6 6 9 11 9 7 6 3 1 3 5 6 7 7 8 9 9 9 9 9 9 9 11 12 12 12 11 11 11 18 16 16 17 17 14 10 10 10 10
2 3 4 3 5 7 2 6 7 1 0 2 6 8 8 7 5 4 1 2 4 6 7 8 8 9 9 9 9 8 8 7 8 11 11 12 11 11 17 19 19 19 19 18 14 11 11 9 9
2 3 2 4 2 5 7 8 6 3 1 3 6 8 8 7 6 4 1 1 3 5 6 7 8 9 9 9 10 8 7 9 10 10 10 9 12 16 19 20 18 19 19 17 13 11 11 10 10
3 7 5 3 2 6 8 7 6 7 9 8 8 9 8 7 6 5 1 1 3 4 6 7 8 8 9 9 9 10 9 11 12 11 12 11 15 18 18 17 17 17 17 16 13 12 11 10 10
3 4 4 4 3 3 6 9 5 7 8 12 13 10 9 8 7 4 2 1 3 5 6 7 7 8 8 8 9 10 10 11 12 10 11 13 14 17 15 16 16 17 17 15 13 12 12 11 11
3 5 7 3 4 4 4 9 1 3 5 8 10 9 8 8 7 4 2 1 4 5 6 7 7 8 8 8 8 10 10 9 10 11 12 15 14 17 17 17 17 17 17 15 14 13 11 10 11
Wind_Direction
34 74 68 56 61 60 56 21 52 84 77 58 52 84 94 74 81 123 185 10 3 4 3 7 14 16 17 18 18 17 16 15 15 14 12 11 10 8 7 6 4 2 1 359 357 356 355 353 351
58 70 52 57 76 76 30 4 52 69 126 127 66 69 72 72 77 85 25 7 9 12 9 10 17 17 17 17 17 16 16 15 14 13 11 10 8 7 5 4 2 360 358 357 355 354 352 351 349
74 59 65 65 75 109 136 53 98 87 92 97 75 56 65 44 48 58 21 11 17 22 16 12 18 17 17 17 17 15 15 14 13 12 11 10 8 6 4 2 360 358 356 355 353 352 350 349 347
73 56 62 67 79 52 103 162 135 124 70 54 83 59 56 11 48 73 38 26 29 28 22 16 19 18 17 17 16 15 14 13 12 11 10 9 7 4 2 1 358 356 355 353 352 350 348 347 345
59 74 71 68 76 74 42 30 105 100 70 57 87 92 73 28 53 68 50 39 37 31 27 21 20 18 17 16 16 14 14 13 12 10 8 7 5 2 1 359 356 355 353 352 350 348 347 345 344
56 62 76 94 110 133 88 42 86 84 96 95 96 99 87 55 63 58 52 47 44 37 31 26 21 19 17 15 16 13 13 12 11 10 8 6 3 1 359 358 355 354 352 351 349 347 345 344 343
83 74 92 117 131 139 134 84 78 101 94 94 115 104 132 132 117 83 58 54 50 43 35 27 23 19 16 15 15 13 13 12 11 10 7 5 3 360 358 356 352 352 351 351 349 347 345 344 342
99 93 89 119 136 139 130 96 80 81 104 48 91 130 160 171 149 103 61 48 48 43 36 27 23 19 13 12 14 12 12 11 11 9 6 4 1 358 356 353 351 352 350 350 348 346 345 343 341
75 72 105 157 158 145 132 107 82 58 85 46 53 116 136 137 143 121 57 41 35 33 32 26 21 18 13 13 14 11 11 10 10 7 5 2 357 353 354 350 351 351 349 349 346 345 344 343 340
52 93 114 50 143 135 119 118 141 106 82 74 67 80 105 117 139 78 51 36 26 17 17 24 18 15 14 13 10 11 7 4 4 3 2 358 354 352 353 349 350 350 348 347 344 344 344 341 336
58 96 105 68 98 111 110 114 126 127 136 173 162 155 144 133 99 72 61 47 26 5 6 12 16 14 15 10 9 11 3 1 1 1 360 356 353 351 348 346 347 346 346 344 341 340 339 335 332
82 57 88 106 91 93 111 115 109 153 173 156 153 147 145 124 90 80 71 48 20 7 355 0 17 14 13 11 5 10 2 359 358 356 358 356 351 349 346 344 343 345 343 339 337 334 331 330 327
77 91 61 82 83 87 91 95 111 92 105 115 124 128 134 119 103 93 85 57 22 1 346 350 17 13 9 8 5 5 359 356 353 354 356 355 351 346 344 341 341 342 341 338 334 331 328 328 325
94 93 95 76 80 84 107 103 106 148 132 128 136 140 136 127 123 102 74 44 12 353 344 341 16 12 9 7 2 360 355 353 352 352 351 351 348 344 342 338 339 342 340 335 331 324 325 324 321
99 87 78 92 94 113 114 126 190 164 145 147 156 151 139 127 115 108 104 68 11 351 338 341 10 10 7 5 1 355 350 348 345 344 345 346 344 341 339 334 337 339 336 333 331 324 328 323 321
84 88 103 181 126 142 156 247 182 154 153 167 175 170 152 132 120 126 125 73 16 345 333 337 2 4 4 1 355 348 343 341 338 337 338 340 341 339 337 331 334 336 335 333 329 331 330 324 321
53 87 239 191 180 157 191 236 170 164 167 179 187 188 175 154 145 147 133 51 1 334 321 327 346 359 357 353 348 341 336 334 333 333 333 336 337 336 333 325 329 333 333 331 330 333 326 324 322
225 227 253 238 195 167 206 235 181 179 181 187 193 196 195 189 186 174 162 23 339 322 312 321 347 357 353 348 342 335 331 330 331 331 333 334 333 332 329 325 328 330 329 328 327 326 323 321 320
156 189 254 271 165 179 221 239 208 186 186 190 199 204 207 201 178 171 169 341 326 321 331 344 356 351 352 346 342 332 329 322 323 330 331 329 328 328 325 326 324 324 324 322 322 324 322 325 326
151 175 246 289 142 191 250 260 218 187 197 196 196 201 201 187 183 202 205 296 317 323 339 352 353 342 343 337 326 312 311 306 313 320 320 326 328 327 329 327 322 319 319 317 321 322 322 324 333
78 187 238 246 55 68 340 302 189 189 179 187 198 198 193 192 196 206 222 275 316 335 345 350 339 335 336 336 332 331 311 301 317 322 319 328 328 326 324 322 320 318 316 314 314 312 322 321 319
309 238 182 165 118 300 341 301 254 201 197 204 201 194 193 187 181 188 208 298 336 340 341 339 333 330 335 340 339 340 345 336 327 324 321 325 327 325 325 324 320 317 317 310 310 322 310 311 315
247 25 145 161 177 310 271 227 289 168 235 229 211 201 193 183 175 171 159 5 359 347 340 335 332 330 336 340 337 334 328 318 320 322 320 321 325 325 325 323 320 318 315 307 303 304 301 303 301
128 79 69 66 76 304 220 189 279 214 218 223 201 194 186 175 163 144 100 28 352 343 339 339 340 335 334 336 331 328 322 323 328 330 328 329 325 324 322 323 320 315 311 307 304 298 297 297 294
54 59 8 351 351 273 169 219 255 235 215 211 194 187 177 167 159 150 70 354 340 341 344 345 343 335 332 330 327 322 317 319 322 326 328 327 326 325 318 319 317 313 309 307 303 299 296 291 289
30 105 127 275 278 297 285 247 262 166 16 192 168 158 156 161 159 154 134 340 333 342 346 343 337 329 327 326 323 314 316 325 323 322 322 321 321 318 315 318 315 310 307 306 301 297 292 291 288
96 99 140 150 303 288 282 282 298 132 146 135 144 151 168 171 163 159 155 344 343 344 341 334 328 325 323 322 322 320 326 325 322 320 318 318 319 322 322 319 314 311 308 303 298 295 289 286 285
70 143 98 111 312 297 294 285 267 233 228 208 194 187 185 172 164 163 178 323 342 341 330 328 323 318 314 318 325 337 327 323 323 322 322 321 321 322 321 320 317 315 312 309 301 298 291 286 285
134 115 112 118 164 218 292 280 228 226 216 207 203 191 183 176 173 178 196 325 346 338 329 324 320 316 316 321 325 326 323 323 324 323 322 323 323 325 324 322 322 320 317 314 308 302 295 288 286
178 190 158 179 231 198 230 271 298 241 234 201 188 178 172 167 166 171 170 358 342 329 322 319 316 315 317 322 326 326 323 324 326 325 324 327 327 328 327 327 327 327 327 324 318 310 305 295 292
Height
1534 1534 1536 1538 1546 1572 1596 1600 1598 1601 1604 1607 1606 1607 1610 1614 1618 1628 1626 1621 1619 1616 1612 1608 1604 1601 1597 1593 1590 1586 1583 1579 1576 1572 1569 1566 1563 1560 1558 1555 1553 1551 1548 1547 1545 1543 1541 1540 1538
1534 1535 1538 1540 1563 1592 1602 1601 1600 1602 1604 1606 1607 1609 1611 1616 1620 1623 1622 1620 1618 1615 1612 1608 1604 1601 1597 1593 1589 1585 1582 1578 1574 1571 1567 1564 1561 1558 1555 1553 1550 1548 1545 1543 1541 1540 1538 1537 1535
1535 1536 1539 1554 1583 1597 1602 1601 1602 1604 1606 1606 1609 1611 1615 1620 1622 1622 1622 1620 1618 1615 1611 1608 1604 1600 1596 1592 1588 1584 1580 1576 1573 1569 1565 1562 1559 1556 1552 1550 1547 1544 1542 1539 1537 1535 1534 1532 1531
1536 1538 1548 1570 1595 1601 1601 1602 1603 1604 1606 1607 1610 1615 1618 1622 1623 1623 1622 1620 1618 1614 1611 1607 1604 1599 1595 1591 1587 1583 1578 1574 1571 1567 1563 1560 1556 1553 1549 1546 1543 1540 1538 1535 1533 1531 1529 1527 1526
1537 1540 1563 1589 1600 1603 1603 1602 1603 1605 1607 1610 1611 1617 1622 1623 1623 1622 1621 1619 1616 1613 1610 1606 1602 1598 1594 1589 1585 1581 1576 1572 1568 1565 1561 1557 1554 1550 1546 1543 1540 1537 1534 1531 1528 1526 1524 1522 1521
1539 1547 1575 1597 1602 1604 1604 1604 1604 1606 1609 1612 1613 1618 1623 1624 1623 1622 1620 1618 1615 1612 1609 1605 1601 1596 1592 1588 1583 1579 1574 1570 1566 1562 1558 1555 1551 1547 1544 1540 1537 1533 1530 1527 1524 1521 1519 1517 1515
1545 1562 1587 1596 1601 1603 1605 1605 1606 1607 1610 1612 1613 1617 1622 1622 1622 1621 1619 1617 1614 1611 1607 1603 1599 1594 1590 1586 1581 1576 1572 1567 1563 1560 1556 1552 1548 1545 1541 1537 1533 1530 1526 1522 1519 1516 1514 1511 1510
1550 1564 1587 1594 1597 1601 1604 1605 1607 1608 1610 1612 1614 1616 1620 1621 1621 1620 1618 1615 1612 1609 1605 1601 1597 1592 1588 1583 1579 1574 1570 1565 1561 1557 1553 1549 1546 1542 1538 1534 1530 1526 1522 1518 1515 1512 1508 1506 1504
1554 1572 1589 1592 1594 1600 1602 1604 1607 1608 1610 1611 1612 1614 1618 1619 1620 1619 1617 1614 1610 1607 1603 1599 1595 1590 1585 1581 1576 1572 1567 1563 1559 1555 1551 1547 1542 1538 1535 1531 1526 1522 1518 1514 1511 1507 1503 1500 1498
1559 1581 1588 1591 1592 1596 1600 1603 1606 1609 1610 1613 1614 1616 1617 1618 1618 1617 1614 1611 1608 1605 1601 1597 1592 1587 1583 1578 1574 1570 1566 1561 1557 1553 1548 1544 1540 1536 1532 1528 1523 1519 1515 1511 1507 1503 1499 1495 1492
1571 1585 1590 1592 1593 1595 1599 1603 1606 1607 1610 1611 1612 1614 1616 1617 1617 1615 1613 1610 1608 1605 1600 1595 1590 1586 1581 1577 1573 1568 1564 1560 1555 1551 1546 1542 1538 1533 1529 1524 1519 1515 1511 1506 1502 1498 1494 1490 1487
1579 1588 1590 1593 1595 1597 1600 1603 1606 1607 1608 1610 1613 1614 1616 1616 1615 1614 1612 1610 1607 1603 1599 1594 1589 1585 1580 1576 1571 1567 1562 1558 1553 1548 1544 1539 1535 1530 1525 1521 1516 1511 1507 1502 1498 1493 1489 1486 1482
1583 1590 1592 1594 1595 1598 1601 1603 1605 1608 1609 1611 1613 1614 1615 1615 1614 1613 1611 1609 1606 1602 1597 1593 1588 1584 1579 1575 1571 1566 1562 1557 1552 1548 1543 1538 1532 1528 1523 1518 1514 1509 1504 1499 1494 1489 1485 1481 1477
1587 1590 1594 1597 1597 1600 1602 1605 1606 1609 1610 1611 1613 1614 1614 1614 1613 1612 1611 1608 1605 1601 1596 1592 1588 1583 1579 1575 1571 1566 1561 1557 1552 1546 1541 1536 1531 1525 1520 1515 1510 1506 1501 1496 1491 1486 1481 1476 1472
1589 1594 1597 1599 1599 1601 1603 1607 1606 1607 1609 1611 1612 1613 1613 1613 1612 1611 1609 1607 1603 1600 1595 1591 1587 1583 1579 1575 1570 1565 1560 1555 1550 1544 1539 1534 1528 1523 1518 1512 1507 1502 1497 1492 1487 1482 1477 1472 1467
1591 1596 1598 1600 1600 1602 1606 1603 1604 1605 1607 1609 1610 1611 1612 1611 1611 1610 1608 1606 1602 1598 1594 1590 1587 1583 1578 1574 1569 1564 1558 1553 1547 1542 1536 1531 1525 1520 1514 1509 1504 1499 1494 1488 1483 1478 1472 1467 1462
1593 1595 1595 1599 1600 1601 1603 1601 1602 1603 1605 1606 1608 1609 1610 1610 1610 1608 1607 1604 1601 1597 1593 1589 1585 1581 1577 1572 1567 1562 1556 1551 1545 1539 1533 1528 1522 1517 1512 1506 1501 1495 1490 1485 1480 1474 1469 1463 1457
1590 1593 1593 1595 1597 1600 1601 1600 1600 1601 1603 1604 1606 1607 1608 1608 1608 1607 1606 1603 1600 1595 1592 1588 1583 1579 1574 1569 1564 1559 1554 1548 1543 1537 1531 1525 1520 1514 1508 1503 1497 1492 1487 1481 1476 1471 1466 1461 1455
1586 1589 1591 1592 1594 1597 1598 1598 1598 1598 1600 1602 1603 1604 1605 1606 1606 1606 1604 1601 1598 1594 1590 1586 1581 1576 1571 1565 1559 1553 1548 1543 1538 1533 1528 1522 1516 1510 1504 1499 1494 1488 1483 1478 1473 1467 1462 1457 1453
1587 1589 1591 1593 1594 1596 1596 1596 1594 1595 1596 1597 1599 1601 1602 1604 1604 1604 1602 1599 1596 1592 1588 1584 1579 1574 1569 1563 1557 1551 1546 1540 1535 1529 1524 1519 1513 1507 1501 1495 1490 1484 1479 1474 1470 1465 1459 1455 1452
1587 1588 1589 1592 1594 1596 1596 1592 1595 1594 1595 1596 1597 1599 1600 1601 1602 1602 1600 1597 1593 1590 1585 1581 1577 1572 1567 1561 1555 1549 1543 1537 1531 1524 1519 1514 1508 1503 1497 1491 1486 1480 1475 1470 1466 1462 1457 1452 1449
1588 1587 1588 1591 1596 1599 1597 1599 1589 1593 1594 1594 1594 1595 1597 1599 1600 1599 1597 1595 1591 1588 1584 1580 1575 1570 1565 1559 1552 1546 1539 1533 1527 1521 1515 1510 1504 1498 1492 1487 1481 1476 1471 1467 1462 1458 1454 1450 1445
1587 1587 1588 1591 1594 1598 1600 1602 1589 1593 1593 1590 1590 1591 1594 1596 1597 1597 1595 1592 1589 1586 1582 1578 1574 1568 1563 1557 1551 1544 1538 1531 1525 1518 1512 1505 1500 1494 1489 1483 1477 1472 1467 1462 1458 1454 1450 1446 1443
1586 1589 1592 1597 1600 1598 1593 1600 1586 1592 1586 1583 1585 1588 1591 1594 1595 1594 1592 1590 1587 1584 1580 1576 1571 1566 1560 1555 1549 1542 1536 1528 1521 1514 1508 1501 1495 1490 1485 1479 1474 1469 1463 1458 1453 1449 1445 1441 1438
1588 1592 1598 1595 1597 1594 1594 1594 1584 1579 1580 1580 1581 1584 1588 1591 1592 1591 1590 1588 1585 1582 1578 1574 1569 1563 1558 1552 1546 1540 1533 1526 1520 1513 1506 1499 1492 1487 1481 1476 1470 1465 1459 1453 1448 1443 1439 1436 1433
1590 1592 1600 1603 1604 1600 1594 1593 1580 1579 1578 1578 1579 1582 1586 1588 1589 1589 1587 1585 1583 1580 1576 1571 1566 1561 1556 1550 1544 1538 1531 1525 1518 1512 1506 1499 1492 1485 1479 1473 1467 1460 1454 1448 1443 1438 1433 1430 1427
1591 1597 1597 1605 1606 1608 1596 1586 1577 1579 1579 1578 1579 1581 1583 1585 1586 1586 1585 1583 1581 1577 1574 1569 1564 1559 1554 1548 1542 1536 1529 1523 1517 1511 1504 1498 1491 1484 1477 1470 1463 1456 1449 1442 1436 1431 1427 1424 1421
1591 1597 1603 1605 1604 1603 1594 1587 1578 1575 1577 1577 1577 1578 1580 1583 1584 1584 1583 1581 1578 1575 1572 1567 1563 1558 1552 1546 1540 1534 1528 1522 1515 1509 1502 1496 1489 1482 1475 1467 1459 1451 1444 1436 1430 1425 1421 1418 1416
1594 1596 1601 1608 1607 1608 1605 1583 1569 1567 1568 1570 1571 1574 1578 1580 1581 1581 1580 1578 1576 1573 1569 1565 1561 1556 1550 1545 1539 1533 1526 1520 1514 1507 1501 1494 1487 1481 1473 1465 1457 1449 1440 1433 1426 1421 1417 1414 1412
1590 1591 1599 1601 1602 1610 1613 1585 1567 1565 1564 1565 1567 1571 1575 1578 1578 1578 1577 1576 1574 1571 1567 1563 1559 1554 1549 1543 1537 1531 1525 1519 1512 1506 1500 1493 1487 1480 1473 1465 1457 1448 1440 1432 1425 1419 1415 1412 1410